{"data":{"norad_id":43229,"epoch":"2026-05-25T03:47:33.167328Z","epoch_age_seconds":54626,"freshness":"FRESH","line1":"1 43229U 18023B   26145.15802277  .00084747 -41089-6  71089-3 0  9991","line2":"2 43229  26.8137 170.0244 3497876  36.9889 342.7127  8.53877009190805","mean_motion":8.53877009,"eccentricity":0.3497876,"inclination_deg":26.8137,"raan_deg":170.0244,"arg_perigee_deg":36.9889,"mean_anomaly_deg":342.7127,"bstar":0.00071089,"rev_number":19080,"period_min":168.64255446887,"perigee_km":196.32483706187,"apogee_km":7269.9064152584,"semimajor_km":10111.25262616,"source":"CELESTRAK","updated_at":"2026-05-25T13:37:55.793071Z"}}